{"data":{"norad_id":60507,"intl_designator":"2024-149AR","name":"TANAGER-1","alt_names":[],"object_type":"PAYLOAD","status":"ACTIVE","operator":null,"country":"US","launch_date":"2024-08-16","launch_site_code":"AFWTR","launch_vehicle":null,"mission":null,"orbit_class":"UNKNOWN","rcs_meters":null,"size_class":null,"mass_kg":null,"dimensions":null,"purposes":["earth_obs"],"wikipedia_slug":null,"has_3d_model":false,"image_url":null,"decayed_at":null,"tle_current":{"epoch":"2026-05-25T05:30:45.933120Z","epoch_age_seconds":48590,"freshness":"FRESH","line1":"1 60507U 24149AR  26145.22969830  .00010081  00000+0  21805-3 0  9993","line2":"2 60507  97.3019 239.4360 0004591  35.1338 325.0213 15.44667420 99494","mean_motion":15.4466742,"eccentricity":0.0004591,"inclination_deg":97.3019,"raan_deg":239.436,"arg_perigee_deg":35.1338,"mean_anomaly_deg":325.0213,"bstar":0.00021805,"rev_number":9949,"period_min":93.223951081975,"perigee_km":429.22877088897,"apogee_km":435.48216507307,"semimajor_km":6810.492467981,"source":"CELESTRAK","updated_at":"2026-05-25T13:38:13.305827Z"}}}